This demonstration page uses our WeatherBlox Daily Observations layout. Learn more.

Left ArrowRight Arrow

39.01783, -85.05884

Hourly Observations for March 22, 2015

Temp ( °F °C ) Dew Point ( °F °C ) Humidity (%) Winds ( mph kmh ) Pressure ( in mb ) Visibility ( mi km ) Precip ( " mm )
12:52 am 00:52 Cloudy 45 7.2 34 1.1 66 66 N 13 20 30.16 1021 10 16 0.00 0.00
1:52 am 01:52 Cloudy 44 6.7 24 -4.4 45 45 NNE 14 22 30.16 1022 10 16 0.00 0.00
2:52 am 02:52 Cloudy 42 5.6 21 -6.1 43 43 NNE 12 19 30.16 1021 10 16 0.00 0.00
3:52 am 03:52 Cloudy 41 5 18 -7.8 39 39 NE 8 13 30.16 1021 10 16 0.00 0.00
4:52 am 04:52 Cloudy 40 4.4 18 -7.8 41 41 NNE 10 17 30.15 1021 10 16 0.00 0.00
5:52 am 05:52 Cloudy 39 3.9 19 -7.2 45 45 NNE 7 11 30.15 1021 10 16 0.00 0.00
6:52 am 06:52 Mostly Cloudy 38 3.3 20 -6.7 48 48 NNE 8 13 30.17 1022 10 16 0.00 0.00
7:52 am 07:52 Mostly Cloudy 37 2.8 21 -6.1 52 52 NE 10 17 30.18 1022 10 16 0.00 0.00
8:52 am 08:52 Mostly Cloudy 37 2.8 26 -3.3 65 65 ENE 12 19 30.20 1023 10 16 0.00 0.00
9:52 am 09:52 Mostly Cloudy 40 4.4 29 -1.7 65 65 ENE 12 19 30.21 1023 9 14 0.00 0.00
10:52 am 10:52 Mostly Cloudy 42 5.6 28 -2.2 58 58 ENE 13 20 30.21 1023 10 16 0.00 0.00
11:52 am 11:52 Mostly Cloudy 45 7.2 24 -4.4 44 44 ENE 14 22 30.20 1023 10 16 0.00 0.00
12:52 pm 12:52 Mostly Cloudy 47 8.3 25 -3.9 42 42 E 7 11 30.19 1022 10 16 0.00 0.00
1:52 pm 13:52 Mostly Cloudy 49 9.4 24 -4.4 38 38 ENE 14 22 30.18 1022 10 16 0.00 0.00
2:52 pm 14:52 Mostly Cloudy 50 10 23 -5 35 35 ENE 10 17 30.16 1022 10 16 0.00 0.00
3:52 pm 15:52 Mostly Cloudy 51 10.6 21 -6.1 31 31 ENE 13 20 30.14 1021 10 16 0.00 0.00
4:52 pm 16:52 Mostly Cloudy 52 11.1 20 -6.7 28 28 NNE 12 19 30.13 1020 10 16 0.00 0.00
5:52 pm 17:52 Mostly Cloudy 50 10 20 -6.7 30 30 ENE 12 19 30.13 1020 10 16 0.00 0.00
6:52 pm 18:52 Mostly Cloudy 49 9.4 18 -7.8 29 29 NE 13 20 30.12 1020 10 16 0.00 0.00
7:52 pm 19:52 Mostly Cloudy 47 8.3 18 -7.8 31 31 ENE 13 20 30.14 1021 10 16 0.00 0.00
8:52 pm 20:52 Mostly Cloudy 46 7.8 18 -7.8 32 32 ENE 10 17 30.14 1021 10 16 0.00 0.00
9:52 pm 21:52 Mostly Cloudy 44 6.7 19 -7.2 37 37 ENE 13 20 30.16 1021 10 16 0.00 0.00
10:52 pm 22:52 Mostly Cloudy 42 5.6 14 -10 32 32 NE 15 24 30.16 1021 10 16 0.00 0.00
11:52 pm 23:52 Mostly Cloudy 40 4.4 13 -10.6 33 33 ENE 14 22 30.16 1021 10 16 0.00 0.00

Powered by AerisWeather